Flag for Morocco Weather past 2 weeks in Rabat, Morocco

Now
79 °F

Passing clouds.


Feels Like: 81 °F
Forecast: 67 / 77 °F
Wind: 3 mph from North

Location: Rabat-Sale

Current Time: Jul 4, 2015 at 10:19:12 AM

Latest Report: Jul 4, 2015 at 10:00 AM


Visibility: N/A

Pressure: 30.07 "Hg

Humidity: 61%

Dew point: 64 °F

Location of RabatLocation

Historic Weather in Rabat — Graph

°F

Rabat temperature yesterday

Maximum temperature yesterday: 79 °F (at 12:00 PM)
Minimum temperature yesterday: 59 °F (at 5:00 AM)
Average temperature yesterday: 71 °F

Past Weeks' High & Low Weather Summary

 TemperatureHumidityPressure
High99 °F (Jun 27, 2:30 PM)100% (Jun 27, 6:00 AM)30.12 "Hg (Jun 27, 6:00 AM)
Low55 °F (Jun 25, 5:00 AM)35% (Jun 27, 2:30 PM)29.89 "Hg (Jun 19, 5:30 PM)
Average71 °F74%30.03 "Hg
* Reported Jun 19 9:00 AM — Jul 4 9:00 AM, Rabat, Weather by CustomWeather, © 2015

Note: Actual official high and low records may vary slightly from our data, if they occured in-between our weather recording intervals... More about our weather records

Advertising

Rabat weather history for previous 24 hours

 ConditionsComfort  
Time TempWeatherWind HumidityBarometerVisibility
9:00 AM
Sat, Jul 4
75 °FPassing clouds.3 mph69%30.07 "HgN/A
8:30 AM75 °FScattered clouds.3 mph69%30.07 "HgN/A
8:00 AM73 °FScattered clouds.3 mph69%30.07 "Hg5 mi
7:30 AM72 °FScattered clouds.1 mph78%30.07 "Hg5 mi
7:00 AM68 °FScattered clouds.No wind94%30.07 "Hg5 mi
6:30 AM64 °FPartly sunny.1 mph94%30.07 "Hg5 mi
6:00 AM64 °FPartly sunny.No wind88%30.07 "Hg5 mi
5:30 AM64 °FPartly sunny.1 mph88%30.07 "Hg5 mi
4:00 AM66 °FPassing clouds.No wind88%30.07 "Hg5 mi
3:30 AM68 °FPassing clouds.No wind88%30.07 "Hg5 mi
3:00 AM68 °FPassing clouds.No wind88%30.07 "Hg5 mi
2:30 AM68 °FPassing clouds.No wind88%30.07 "Hg5 mi
2:00 AM68 °FPassing clouds.No wind88%30.07 "Hg5 mi
1:30 AM68 °FPassing clouds.No wind88%30.09 "Hg5 mi
1:00 AM66 °FPassing clouds.No wind88%30.09 "Hg5 mi
12:30 AM66 °FPassing clouds.No wind88%30.09 "HgN/A
12:00 AM66 °FPassing clouds.No wind94%30.09 "HgN/A
11:30 PM
Fri, Jul 3
68 °FPassing clouds.No wind88%30.12 "HgN/A
11:00 PM70 °FPassing clouds.No wind83%30.12 "HgN/A
10:30 PM70 °FPassing clouds.3 mph83%30.12 "HgN/A
10:00 PM72 °FPassing clouds.6 mph78%30.12 "HgN/A
9:30 PM72 °FPassing clouds.6 mph78%30.12 "HgN/A
9:00 PM72 °FPassing clouds.6 mph78%30.12 "HgN/A
8:00 PM72 °FPassing clouds.5 mph83%30.09 "HgN/A
7:30 PM73 °FScattered clouds.5 mph78%30.09 "HgN/A
7:00 PM73 °FScattered clouds.7 mph78%30.07 "HgN/A
6:30 PM75 °FScattered clouds.8 mph69%30.07 "HgN/A
6:00 PM75 °FScattered clouds.8 mph69%30.07 "HgN/A
5:30 PM77 °FScattered clouds.8 mph65%30.07 "HgN/A
5:00 PM77 °FScattered clouds.8 mph65%30.07 "HgN/A
4:00 PM79 °FPassing clouds.10 mph61%30.07 "HgN/A
3:30 PM79 °FPassing clouds.9 mph61%30.07 "HgN/A
3:00 PM79 °FPassing clouds.10 mph58%30.07 "HgN/A
2:30 PM79 °FPassing clouds.10 mph61%30.07 "HgN/A
2:00 PM79 °FPassing clouds.10 mph58%30.07 "HgN/A
1:30 PM77 °FPassing clouds.10 mph61%30.07 "HgN/A
1:00 PM77 °FPassing clouds.9 mph61%30.07 "HgN/A
12:30 PM79 °FPassing clouds.9 mph58%30.07 "HgN/A
12:00 PM79 °FPassing clouds.10 mph58%30.07 "HgN/A
11:30 AM77 °FPassing clouds.7 mph57%30.07 "HgN/A
11:00 AM77 °FPassing clouds.9 mph57%30.07 "HgN/A
10:30 AM77 °FPassing clouds.7 mph57%30.07 "HgN/A
10:00 AM77 °FPassing clouds.8 mph61%30.07 "HgN/A
Weather by CustomWeather, © 2015

See weather overviewHow to use our weather pages